| State | Missouri | Latest | Unknown (36100 cfs) | |
| River | Osage River | Rating | Observed | Estimated |
| Updated | 2026-05-05 9:00 (1 hour ago) | Flood - The river is flooding. Obstacles can be treacherous or deadly. The river should be avoided at this stage for casual trips and definitely for the inexperienced. Trips should be attempted only with protective gear and equipment.Flood | (none) | (none) |
| Discharge | 36100 cfs (median: 28900 cfs) | High - The river is high and potentially dangerous, especially for the young and / or inexperienced. Normal stream obstacles are sometimes difficult to navigate. Extended distances can be attempted, but canoe travel may not be advisable.High | (none) | (none) |
| Height | 16.05 feet | Good - Conditions are ideal for a canoe or kayak. Boats typically will drag on fewer than one-quarter of riffles, if at all, and portages are unnecessary or rare. Normal float lengths can be attempted without a problem.Good | (none) | (none) |
| Trend | Rising (rising over 24 hours) | Low - River is low but can still be floated. Some riffles are okay but most come with significant dragging and might need a portage. Float lengths should be reduced to accommodate low flow, dragging, and portages.Low | (none) | (none) |
| USGS | USGS Site ( Duck Duck Go Maps) | Poor - River is too low to float comfortably. Most or all riffles will drag or must be portaged and some obstacles (such as slick shelf rock) cause undue problems. Avoid the river at this stage for casual paddling trips.Poor | (none) | (none) |
| Date | Start | End | Distance | Condition | Discharge | Height | Fishing | Details |
|---|
A total of 0 rows are displayed.
BLG - Bluegill
CCF - Channel Catfish
CP - Chain Pickerel
FWD - Freshwater Drum
GSF - Green Sunfish
KSB - Kentucky Spotted Bass
LMB - Largemouth Bass
LSF - Longear Sunfish
RB - Rock Bass / Goggle Eye
RSF - Redear Sunfish
RT - Rainbow Trout
SMB - Smallmouth Bass
WB - White Bass
WF - Whitefish
WL - WalleyeThe classic River Trips application is still available for use. It is updated with the new system using a data retrofit. It is no longer maintained. The original River Trips application is no longer updated (as of 1 Dec 2016) but can be checked for errors or for the condition of the data before it was converted to the new system.
| Observation | Height | Discharge | Maximum Discharge | Minimum Discharge | Mean Discharge | P05 | P10 | P20 | P25 | P50 (Median) | P75 | P80 | P90 | P95 |
|---|---|---|---|---|---|---|---|---|---|---|---|---|---|---|
| 2026-05-05 09:00 | 16.05 | 36100 | 50000 (2024) | 1370 (2023) | 26000 | 1400 | 2810 | 6020 | 28900 | 39900 | 45200 | 49700 | ||
| 2026-05-05 08:00 | 16.02 | 36000 | 50000 (2024) | 1370 (2023) | 26000 | 1400 | 2810 | 6020 | 28900 | 39900 | 45200 | 49700 | ||
| 2026-05-05 07:00 | 15.98 | 35900 | 50000 (2024) | 1370 (2023) | 26000 | 1400 | 2810 | 6020 | 28900 | 39900 | 45200 | 49700 | ||
| 2026-05-05 06:00 | 15.95 | 35800 | 50000 (2024) | 1370 (2023) | 26000 | 1400 | 2810 | 6020 | 28900 | 39900 | 45200 | 49700 | ||
| 2026-05-05 05:00 | 15.84 | 35400 | 50000 (2024) | 1370 (2023) | 26000 | 1400 | 2810 | 6020 | 28900 | 39900 | 45200 | 49700 | ||
| 2026-05-05 04:00 | 15.75 | 35200 | 50000 (2024) | 1370 (2023) | 26000 | 1400 | 2810 | 6020 | 28900 | 39900 | 45200 | 49700 | ||
| 2026-05-05 03:00 | 15.71 | 35000 | 50000 (2024) | 1370 (2023) | 26000 | 1400 | 2810 | 6020 | 28900 | 39900 | 45200 | 49700 | ||
| 2026-05-05 02:00 | 15.63 | 34800 | 50000 (2024) | 1370 (2023) | 26000 | 1400 | 2810 | 6020 | 28900 | 39900 | 45200 | 49700 | ||
| 2026-05-05 01:00 | 15.77 | 35200 | 50000 (2024) | 1370 (2023) | 26000 | 1400 | 2810 | 6020 | 28900 | 39900 | 45200 | 49700 | ||
| 2026-05-05 00:00 | 15.78 | 35300 | 50000 (2024) | 1370 (2023) | 26000 | 1400 | 2810 | 6020 | 28900 | 39900 | 45200 | 49700 | ||
| 2026-05-04 23:00 | 15.71 | 35000 | 50000 (2024) | 1370 (2023) | 26000 | 1400 | 2810 | 6020 | 28900 | 39900 | 45200 | 49700 | ||
| 2026-05-04 22:00 | 15.62 | 34800 | 55400 (2017) | 1320 (2023) | 26100 | 1330 | 3040 | 7580 | 26500 | 40900 | 46600 | 54700 | ||
| 2026-05-04 21:00 | 15.54 | 34500 | 55400 (2017) | 1320 (2023) | 26100 | 1330 | 3040 | 7580 | 26500 | 40900 | 46600 | 54700 | ||
| 2026-05-04 20:00 | 15.41 | 34100 | 55400 (2017) | 1320 (2023) | 26100 | 1330 | 3040 | 7580 | 26500 | 40900 | 46600 | 54700 | ||
| 2026-05-04 19:00 | 15.26 | 33600 | 55400 (2017) | 1320 (2023) | 26100 | 1330 | 3040 | 7580 | 26500 | 40900 | 46600 | 54700 | ||
| 2026-05-04 18:00 | 15.07 | 33000 | 55400 (2017) | 1320 (2023) | 26100 | 1330 | 3040 | 7580 | 26500 | 40900 | 46600 | 54700 | ||
| 2026-05-04 17:00 | 14.88 | 32500 | 55400 (2017) | 1320 (2023) | 26100 | 1330 | 3040 | 7580 | 26500 | 40900 | 46600 | 54700 | ||
| 2026-05-04 16:00 | 14.62 | 31700 | 55400 (2017) | 1320 (2023) | 26100 | 1330 | 3040 | 7580 | 26500 | 40900 | 46600 | 54700 | ||
| 2026-05-04 15:00 | 14.34 | 30800 | 55400 (2017) | 1320 (2023) | 26100 | 1330 | 3040 | 7580 | 26500 | 40900 | 46600 | 54700 | ||
| 2026-05-04 14:00 | 13.94 | 29600 | 55400 (2017) | 1320 (2023) | 26100 | 1330 | 3040 | 7580 | 26500 | 40900 | 46600 | 54700 | ||
| 2026-05-04 13:00 | 13.45 | 28200 | 55400 (2017) | 1320 (2023) | 26100 | 1330 | 3040 | 7580 | 26500 | 40900 | 46600 | 54700 | ||
| 2026-05-04 12:00 | 12.88 | 26500 | 55400 (2017) | 1320 (2023) | 26100 | 1330 | 3040 | 7580 | 26500 | 40900 | 46600 | 54700 | ||
| 2026-05-04 11:00 | 12.23 | 24600 | 55400 (2017) | 1320 (2023) | 26100 | 1330 | 3040 | 7580 | 26500 | 40900 | 46600 | 54700 | ||
| 2026-05-04 10:00 | 11.71 | 23200 | 55400 (2017) | 1320 (2023) | 26100 | 1330 | 3040 | 7580 | 26500 | 40900 | 46600 | 54700 | ||
| 2026-05-04 09:00 | 11.55 | 22700 | 55400 (2017) | 1320 (2023) | 26100 | 1330 | 3040 | 7580 | 26500 | 40900 | 46600 | 54700 | ||
| 2026-05-04 08:00 | 11.49 | 22600 | 55400 (2017) | 1320 (2023) | 26100 | 1330 | 3040 | 7580 | 26500 | 40900 | 46600 | 54700 | ||
| 2026-05-04 07:00 | 10.93 | 21000 | 55400 (2017) | 1320 (2023) | 26100 | 1330 | 3040 | 7580 | 26500 | 40900 | 46600 | 54700 | ||
| 2026-05-04 06:00 | 10.74 | 20500 | 55400 (2017) | 1320 (2023) | 26100 | 1330 | 3040 | 7580 | 26500 | 40900 | 46600 | 54700 | ||
| 2026-05-04 05:00 | 10.84 | 20800 | 55400 (2017) | 1320 (2023) | 26100 | 1330 | 3040 | 7580 | 26500 | 40900 | 46600 | 54700 | ||
| 2026-05-04 04:00 | 10.82 | 20700 | 55400 (2017) | 1320 (2023) | 26100 | 1330 | 3040 | 7580 | 26500 | 40900 | 46600 | 54700 | ||
| 2026-05-04 03:00 | 10.75 | 20600 | 55400 (2017) | 1320 (2023) | 26100 | 1330 | 3040 | 7580 | 26500 | 40900 | 46600 | 54700 | ||
| 2026-05-04 02:00 | 10.86 | 20800 | 55400 (2017) | 1320 (2023) | 26100 | 1330 | 3040 | 7580 | 26500 | 40900 | 46600 | 54700 | ||
| 2026-05-04 01:00 | 11.19 | 21700 | 55400 (2017) | 1320 (2023) | 26100 | 1330 | 3040 | 7580 | 26500 | 40900 | 46600 | 54700 | ||
| 2026-05-04 00:00 | 11.34 | 22200 | 55400 (2017) | 1320 (2023) | 26100 | 1330 | 3040 | 7580 | 26500 | 40900 | 46600 | 54700 | ||
| 2026-05-03 23:00 | 11.51 | 22600 | 55400 (2017) | 1320 (2023) | 26100 | 1330 | 3040 | 7580 | 26500 | 40900 | 46600 | 54700 | ||
| 2026-05-03 22:00 | 11.71 | 23200 | 56100 (2017) | 1300 (2018) | 26000 | 1310 | 3860 | 10600 | 27200 | 38100 | 41200 | 54700 | ||
| 2026-05-03 21:00 | 11.60 | 22900 | 56100 (2017) | 1300 (2018) | 26000 | 1310 | 3860 | 10600 | 27200 | 38100 | 41200 | 54700 | ||
| 2026-05-03 20:00 | 11.10 | 21500 | 56100 (2017) | 1300 (2018) | 26000 | 1310 | 3860 | 10600 | 27200 | 38100 | 41200 | 54700 | ||
| 2026-05-03 19:00 | 10.80 | 20700 | 56100 (2017) | 1300 (2018) | 26000 | 1310 | 3860 | 10600 | 27200 | 38100 | 41200 | 54700 | ||
| 2026-05-03 18:00 | 10.81 | 20700 | 56100 (2017) | 1300 (2018) | 26000 | 1310 | 3860 | 10600 | 27200 | 38100 | 41200 | 54700 | ||
| 2026-05-03 17:00 | 10.69 | 20400 | 56100 (2017) | 1300 (2018) | 26000 | 1310 | 3860 | 10600 | 27200 | 38100 | 41200 | 54700 | ||
| 2026-05-03 16:00 | 10.58 | 20100 | 56100 (2017) | 1300 (2018) | 26000 | 1310 | 3860 | 10600 | 27200 | 38100 | 41200 | 54700 | ||
| 2026-05-03 15:00 | 10.44 | 19700 | 56100 (2017) | 1300 (2018) | 26000 | 1310 | 3860 | 10600 | 27200 | 38100 | 41200 | 54700 | ||
| 2026-05-03 14:00 | 10.30 | 19400 | 56100 (2017) | 1300 (2018) | 26000 | 1310 | 3860 | 10600 | 27200 | 38100 | 41200 | 54700 | ||
| 2026-05-03 13:00 | 10.14 | 18900 | 56100 (2017) | 1300 (2018) | 26000 | 1310 | 3860 | 10600 | 27200 | 38100 | 41200 | 54700 | ||
| 2026-05-03 12:00 | 10.26 | 19300 | 56100 (2017) | 1300 (2018) | 26000 | 1310 | 3860 | 10600 | 27200 | 38100 | 41200 | 54700 | ||
| 2026-05-03 11:00 | 10.25 | 19200 | 56100 (2017) | 1300 (2018) | 26000 | 1310 | 3860 | 10600 | 27200 | 38100 | 41200 | 54700 | ||
| 2026-05-03 10:00 | 10.30 | 19400 | 56100 (2017) | 1300 (2018) | 26000 | 1310 | 3860 | 10600 | 27200 | 38100 | 41200 | 54700 | ||
| 2026-05-03 09:00 | 10.49 | 19900 | 56100 (2017) | 1300 (2018) | 26000 | 1310 | 3860 | 10600 | 27200 | 38100 | 41200 | 54700 | ||
| 2026-05-03 08:00 | 10.77 | 20600 | 56100 (2017) | 1300 (2018) | 26000 | 1310 | 3860 | 10600 | 27200 | 38100 | 41200 | 54700 | ||
| 2026-05-03 07:00 | 11.20 | 21800 | 56100 (2017) | 1300 (2018) | 26000 | 1310 | 3860 | 10600 | 27200 | 38100 | 41200 | 54700 | ||
| 2026-05-03 06:00 | 11.72 | 23200 | 56100 (2017) | 1300 (2018) | 26000 | 1310 | 3860 | 10600 | 27200 | 38100 | 41200 | 54700 | ||
| 2026-05-03 05:00 | 12.13 | 24300 | 56100 (2017) | 1300 (2018) | 26000 | 1310 | 3860 | 10600 | 27200 | 38100 | 41200 | 54700 | ||
| 2026-05-03 04:00 | 12.44 | 25200 | 56100 (2017) | 1300 (2018) | 26000 | 1310 | 3860 | 10600 | 27200 | 38100 | 41200 | 54700 | ||
| 2026-05-03 03:00 | 12.39 | 25100 | 56100 (2017) | 1300 (2018) | 26000 | 1310 | 3860 | 10600 | 27200 | 38100 | 41200 | 54700 | ||
| 2026-05-03 02:00 | 12.40 | 25100 | 56100 (2017) | 1300 (2018) | 26000 | 1310 | 3860 | 10600 | 27200 | 38100 | 41200 | 54700 | ||
| 2026-05-03 01:00 | 12.26 | 24700 | 56100 (2017) | 1300 (2018) | 26000 | 1310 | 3860 | 10600 | 27200 | 38100 | 41200 | 54700 | ||
| 2026-05-03 00:00 | 12.09 | 24200 | 56100 (2017) | 1300 (2018) | 26000 | 1310 | 3860 | 10600 | 27200 | 38100 | 41200 | 54700 | ||
| 2026-05-02 23:00 | 12.45 | 25300 | 56100 (2017) | 1300 (2018) | 26000 | 1310 | 3860 | 10600 | 27200 | 38100 | 41200 | 54700 | ||
| 2026-05-02 22:00 | 12.60 | 25700 | 59600 (2017) | 1390 (2018) | 25100 | 1450 | 3420 | 7370 | 25700 | 36000 | 36100 | 57300 | ||
| 2026-05-02 21:00 | 12.67 | 25900 | 59600 (2017) | 1390 (2018) | 25100 | 1450 | 3420 | 7370 | 25700 | 36000 | 36100 | 57300 | ||
| 2026-05-02 20:00 | 12.41 | 25100 | 59600 (2017) | 1390 (2018) | 25100 | 1450 | 3420 | 7370 | 25700 | 36000 | 36100 | 57300 | ||
| 2026-05-02 19:00 | 12.42 | 25200 | 59600 (2017) | 1390 (2018) | 25100 | 1450 | 3420 | 7370 | 25700 | 36000 | 36100 | 57300 | ||
| 2026-05-02 18:00 | 12.70 | 26000 | 59600 (2017) | 1390 (2018) | 25100 | 1450 | 3420 | 7370 | 25700 | 36000 | 36100 | 57300 | ||
| 2026-05-02 17:00 | 13.07 | 27000 | 59600 (2017) | 1390 (2018) | 25100 | 1450 | 3420 | 7370 | 25700 | 36000 | 36100 | 57300 | ||
| 2026-05-02 16:00 | 13.53 | 28400 | 59600 (2017) | 1390 (2018) | 25100 | 1450 | 3420 | 7370 | 25700 | 36000 | 36100 | 57300 | ||
| 2026-05-02 15:00 | 14.04 | 29900 | 59600 (2017) | 1390 (2018) | 25100 | 1450 | 3420 | 7370 | 25700 | 36000 | 36100 | 57300 | ||
| 2026-05-02 14:00 | 14.52 | 31400 | 59600 (2017) | 1390 (2018) | 25100 | 1450 | 3420 | 7370 | 25700 | 36000 | 36100 | 57300 | ||
| 2026-05-02 13:00 | 15.00 | 32800 | 59600 (2017) | 1390 (2018) | 25100 | 1450 | 3420 | 7370 | 25700 | 36000 | 36100 | 57300 | ||
| 2026-05-02 12:00 | 15.28 | 33700 | 59600 (2017) | 1390 (2018) | 25100 | 1450 | 3420 | 7370 | 25700 | 36000 | 36100 | 57300 | ||
| 2026-05-02 11:00 | 15.59 | 34700 | 59600 (2017) | 1390 (2018) | 25100 | 1450 | 3420 | 7370 | 25700 | 36000 | 36100 | 57300 | ||
| 2026-05-02 10:00 | 15.57 | 34600 | 59600 (2017) | 1390 (2018) | 25100 | 1450 | 3420 | 7370 | 25700 | 36000 | 36100 | 57300 | ||
| 2026-05-02 09:00 | 15.73 | 35100 | 59600 (2017) | 1390 (2018) | 25100 | 1450 | 3420 | 7370 | 25700 | 36000 | 36100 | 57300 | ||
| 2026-05-02 08:00 | 15.68 | 34900 | 59600 (2017) | 1390 (2018) | 25100 | 1450 | 3420 | 7370 | 25700 | 36000 | 36100 | 57300 | ||
| 2026-05-02 07:00 | 15.58 | 34600 | 59600 (2017) | 1390 (2018) | 25100 | 1450 | 3420 | 7370 | 25700 | 36000 | 36100 | 57300 | ||
| 2026-05-02 06:00 | 15.45 | 34200 | 59600 (2017) | 1390 (2018) | 25100 | 1450 | 3420 | 7370 | 25700 | 36000 | 36100 | 57300 | ||
| 2026-05-02 05:00 | 15.32 | 33800 | 59600 (2017) | 1390 (2018) | 25100 | 1450 | 3420 | 7370 | 25700 | 36000 | 36100 | 57300 | ||
| 2026-05-02 04:00 | 15.15 | 33300 | 59600 (2017) | 1390 (2018) | 25100 | 1450 | 3420 | 7370 | 25700 | 36000 | 36100 | 57300 | ||
| 2026-05-02 03:00 | 14.96 | 32700 | 59600 (2017) | 1390 (2018) | 25100 | 1450 | 3420 | 7370 | 25700 | 36000 | 36100 | 57300 | ||
| 2026-05-02 02:00 | 14.68 | 31800 | 59600 (2017) | 1390 (2018) | 25100 | 1450 | 3420 | 7370 | 25700 | 36000 | 36100 | 57300 | ||
| 2026-05-02 01:00 | 14.37 | 30900 | 59600 (2017) | 1390 (2018) | 25100 | 1450 | 3420 | 7370 | 25700 | 36000 | 36100 | 57300 | ||
| 2026-05-02 00:00 | 13.97 | 29700 | 59600 (2017) | 1390 (2018) | 25100 | 1450 | 3420 | 7370 | 25700 | 36000 | 36100 | 57300 | ||
| 2026-05-01 23:00 | 13.47 | 28200 | 59600 (2017) | 1390 (2018) | 25100 | 1450 | 3420 | 7370 | 25700 | 36000 | 36100 | 57300 | ||
| 2026-05-01 22:00 | 12.98 | 26800 | 74700 (2017) | 3110 (2018) | 25500 | 3340 | 5680 | 6440 | 21800 | 36200 | 46000 | 72200 | ||
| 2026-05-01 21:00 | 12.46 | 25300 | 74700 (2017) | 3110 (2018) | 25500 | 3340 | 5680 | 6440 | 21800 | 36200 | 46000 | 72200 | ||
| 2026-05-01 20:00 | 12.01 | 24000 | 74700 (2017) | 3110 (2018) | 25500 | 3340 | 5680 | 6440 | 21800 | 36200 | 46000 | 72200 | ||
| 2026-05-01 19:00 | 12.15 | 24400 | 74700 (2017) | 3110 (2018) | 25500 | 3340 | 5680 | 6440 | 21800 | 36200 | 46000 | 72200 | ||
| 2026-05-01 18:00 | 12.40 | 25100 | 74700 (2017) | 3110 (2018) | 25500 | 3340 | 5680 | 6440 | 21800 | 36200 | 46000 | 72200 | ||
| 2026-05-01 17:00 | 12.68 | 25900 | 74700 (2017) | 3110 (2018) | 25500 | 3340 | 5680 | 6440 | 21800 | 36200 | 46000 | 72200 | ||
| 2026-05-01 16:00 | 12.86 | 26400 | 74700 (2017) | 3110 (2018) | 25500 | 3340 | 5680 | 6440 | 21800 | 36200 | 46000 | 72200 | ||
| 2026-05-01 15:00 | 13.19 | 27400 | 74700 (2017) | 3110 (2018) | 25500 | 3340 | 5680 | 6440 | 21800 | 36200 | 46000 | 72200 | ||
| 2026-05-01 14:00 | 13.52 | 28400 | 74700 (2017) | 3110 (2018) | 25500 | 3340 | 5680 | 6440 | 21800 | 36200 | 46000 | 72200 | ||
| 2026-05-01 13:00 | 13.73 | 29000 | 74700 (2017) | 3110 (2018) | 25500 | 3340 | 5680 | 6440 | 21800 | 36200 | 46000 | 72200 | ||
| 2026-05-01 12:00 | 13.97 | 29700 | 74700 (2017) | 3110 (2018) | 25500 | 3340 | 5680 | 6440 | 21800 | 36200 | 46000 | 72200 | ||
| 2026-05-01 11:00 | 14.07 | 30000 | 74700 (2017) | 3110 (2018) | 25500 | 3340 | 5680 | 6440 | 21800 | 36200 | 46000 | 72200 | ||
| 2026-05-01 10:00 | 14.50 | 31300 | 74700 (2017) | 3110 (2018) | 25500 | 3340 | 5680 | 6440 | 21800 | 36200 | 46000 | 72200 | ||
| 2026-05-01 09:00 | 14.84 | 32300 | 74700 (2017) | 3110 (2018) | 25500 | 3340 | 5680 | 6440 | 21800 | 36200 | 46000 | 72200 | ||
| 2026-05-01 08:00 | 14.63 | 31700 | 74700 (2017) | 3110 (2018) | 25500 | 3340 | 5680 | 6440 | 21800 | 36200 | 46000 | 72200 | ||
| 2026-05-01 07:00 | 14.32 | 30700 | 74700 (2017) | 3110 (2018) | 25500 | 3340 | 5680 | 6440 | 21800 | 36200 | 46000 | 72200 | ||
| 2026-05-01 06:00 | 13.95 | 29600 | 74700 (2017) | 3110 (2018) | 25500 | 3340 | 5680 | 6440 | 21800 | 36200 | 46000 | 72200 | ||
| 2026-05-01 05:00 | 13.61 | 28600 | 74700 (2017) | 3110 (2018) | 25500 | 3340 | 5680 | 6440 | 21800 | 36200 | 46000 | 72200 | ||
| 2026-05-01 04:00 | 13.54 | 28400 | 74700 (2017) | 3110 (2018) | 25500 | 3340 | 5680 | 6440 | 21800 | 36200 | 46000 | 72200 | ||
| 2026-05-01 03:00 | 13.85 | 29300 | 74700 (2017) | 3110 (2018) | 25500 | 3340 | 5680 | 6440 | 21800 | 36200 | 46000 | 72200 | ||
| 2026-05-01 02:00 | 13.53 | 28400 | 74700 (2017) | 3110 (2018) | 25500 | 3340 | 5680 | 6440 | 21800 | 36200 | 46000 | 72200 | ||
| 2026-05-01 01:00 | 13.15 | 27300 | 74700 (2017) | 3110 (2018) | 25500 | 3340 | 5680 | 6440 | 21800 | 36200 | 46000 | 72200 | ||
| 2026-05-01 00:00 | 13.11 | 27200 | 74700 (2017) | 3110 (2018) | 25500 | 3340 | 5680 | 6440 | 21800 | 36200 | 46000 | 72200 | ||
| 2026-04-30 23:00 | 13.02 | 26900 | 74700 (2017) | 3110 (2018) | 25500 | 3340 | 5680 | 6440 | 21800 | 36200 | 46000 | 72200 | ||
| 2026-04-30 22:00 | 12.87 | 26500 | 65400 (2017) | 3520 (2023) | 23200 | 3540 | 4070 | 4960 | 24600 | 31600 | 31900 | 62100 | ||
| 2026-04-30 21:00 | 12.34 | 24900 | 65400 (2017) | 3520 (2023) | 23200 | 3540 | 4070 | 4960 | 24600 | 31600 | 31900 | 62100 | ||
| 2026-04-30 20:00 | 11.96 | 23900 | 65400 (2017) | 3520 (2023) | 23200 | 3540 | 4070 | 4960 | 24600 | 31600 | 31900 | 62100 | ||
| 2026-04-30 19:00 | 11.78 | 23400 | 65400 (2017) | 3520 (2023) | 23200 | 3540 | 4070 | 4960 | 24600 | 31600 | 31900 | 62100 | ||
| 2026-04-30 18:00 | 11.70 | 23100 | 65400 (2017) | 3520 (2023) | 23200 | 3540 | 4070 | 4960 | 24600 | 31600 | 31900 | 62100 | ||
| 2026-04-30 17:00 | 11.73 | 23200 | 65400 (2017) | 3520 (2023) | 23200 | 3540 | 4070 | 4960 | 24600 | 31600 | 31900 | 62100 | ||
| 2026-04-30 16:00 | 11.78 | 23400 | 65400 (2017) | 3520 (2023) | 23200 | 3540 | 4070 | 4960 | 24600 | 31600 | 31900 | 62100 | ||
| 2026-04-30 15:00 | 12.04 | 24100 | 65400 (2017) | 3520 (2023) | 23200 | 3540 | 4070 | 4960 | 24600 | 31600 | 31900 | 62100 | ||
| 2026-04-30 14:00 | 12.15 | 24400 | 65400 (2017) | 3520 (2023) | 23200 | 3540 | 4070 | 4960 | 24600 | 31600 | 31900 | 62100 | ||
| 2026-04-30 13:00 | 12.19 | 24500 | 65400 (2017) | 3520 (2023) | 23200 | 3540 | 4070 | 4960 | 24600 | 31600 | 31900 | 62100 | ||
| 2026-04-30 12:00 | 12.10 | 24300 | 65400 (2017) | 3520 (2023) | 23200 | 3540 | 4070 | 4960 | 24600 | 31600 | 31900 | 62100 | ||
| 2026-04-30 11:00 | 12.00 | 24000 | 65400 (2017) | 3520 (2023) | 23200 | 3540 | 4070 | 4960 | 24600 | 31600 | 31900 | 62100 | ||
| 2026-04-30 10:00 | 12.11 | 24300 | 65400 (2017) | 3520 (2023) | 23200 | 3540 | 4070 | 4960 | 24600 | 31600 | 31900 | 62100 | ||
| 2026-04-30 09:00 | 12.07 | 24200 | 65400 (2017) | 3520 (2023) | 23200 | 3540 | 4070 | 4960 | 24600 | 31600 | 31900 | 62100 | ||
| 2026-04-30 08:00 | 12.22 | 24600 | 65400 (2017) | 3520 (2023) | 23200 | 3540 | 4070 | 4960 | 24600 | 31600 | 31900 | 62100 | ||
| 2026-04-30 07:00 | 12.25 | 24700 | 65400 (2017) | 3520 (2023) | 23200 | 3540 | 4070 | 4960 | 24600 | 31600 | 31900 | 62100 | ||
| 2026-04-30 06:00 | 12.09 | 24200 | 65400 (2017) | 3520 (2023) | 23200 | 3540 | 4070 | 4960 | 24600 | 31600 | 31900 | 62100 | ||
| 2026-04-30 05:00 | 11.98 | 23900 | 65400 (2017) | 3520 (2023) | 23200 | 3540 | 4070 | 4960 | 24600 | 31600 | 31900 | 62100 | ||
| 2026-04-30 04:00 | 12.18 | 24500 | 65400 (2017) | 3520 (2023) | 23200 | 3540 | 4070 | 4960 | 24600 | 31600 | 31900 | 62100 | ||
| 2026-04-30 03:00 | 12.49 | 25400 | 65400 (2017) | 3520 (2023) | 23200 | 3540 | 4070 | 4960 | 24600 | 31600 | 31900 | 62100 | ||
| 2026-04-30 02:00 | 12.58 | 25600 | 65400 (2017) | 3520 (2023) | 23200 | 3540 | 4070 | 4960 | 24600 | 31600 | 31900 | 62100 | ||
| 2026-04-30 01:00 | 12.41 | 25100 | 65400 (2017) | 3520 (2023) | 23200 | 3540 | 4070 | 4960 | 24600 | 31600 | 31900 | 62100 | ||
| 2026-04-30 00:00 | 11.96 | 23900 | 65400 (2017) | 3520 (2023) | 23200 | 3540 | 4070 | 4960 | 24600 | 31600 | 31900 | 62100 | ||
| 2026-04-29 23:00 | 11.25 | 21900 | 65400 (2017) | 3520 (2023) | 23200 | 3540 | 4070 | 4960 | 24600 | 31600 | 31900 | 62100 | ||
| 2026-04-29 22:00 | 10.35 | 19500 | 43400 (2017) | 3320 (2016) | 22900 | 3350 | 3650 | 3720 | 24300 | 39200 | 40100 | 43100 | ||
| 2026-04-29 21:00 | 9.58 | 17200 | 43400 (2017) | 3320 (2016) | 22900 | 3350 | 3650 | 3720 | 24300 | 39200 | 40100 | 43100 | ||
| 2026-04-29 20:00 | 9.32 | 16500 | 43400 (2017) | 3320 (2016) | 22900 | 3350 | 3650 | 3720 | 24300 | 39200 | 40100 | 43100 | ||
| 2026-04-29 19:00 | 9.38 | 16600 | 43400 (2017) | 3320 (2016) | 22900 | 3350 | 3650 | 3720 | 24300 | 39200 | 40100 | 43100 | ||
| 2026-04-29 18:00 | 9.53 | 17100 | 43400 (2017) | 3320 (2016) | 22900 | 3350 | 3650 | 3720 | 24300 | 39200 | 40100 | 43100 | ||
| 2026-04-29 17:00 | 9.73 | 17700 | 43400 (2017) | 3320 (2016) | 22900 | 3350 | 3650 | 3720 | 24300 | 39200 | 40100 | 43100 | ||
| 2026-04-29 16:00 | 9.94 | 18300 | 43400 (2017) | 3320 (2016) | 22900 | 3350 | 3650 | 3720 | 24300 | 39200 | 40100 | 43100 | ||
| 2026-04-29 15:00 | 10.27 | 19300 | 43400 (2017) | 3320 (2016) | 22900 | 3350 | 3650 | 3720 | 24300 | 39200 | 40100 | 43100 | ||
| 2026-04-29 14:00 | 10.64 | 20300 | 43400 (2017) | 3320 (2016) | 22900 | 3350 | 3650 | 3720 | 24300 | 39200 | 40100 | 43100 | ||
| 2026-04-29 13:00 | 11.04 | 21300 | 43400 (2017) | 3320 (2016) | 22900 | 3350 | 3650 | 3720 | 24300 | 39200 | 40100 | 43100 | ||
| 2026-04-29 12:00 | 11.49 | 22600 | 43400 (2017) | 3320 (2016) | 22900 | 3350 | 3650 | 3720 | 24300 | 39200 | 40100 | 43100 | ||
| 2026-04-29 11:00 | 11.93 | 23800 | 43400 (2017) | 3320 (2016) | 22900 | 3350 | 3650 | 3720 | 24300 | 39200 | 40100 | 43100 | ||
| 2026-04-29 10:00 | 12.29 | 24800 | 43400 (2017) | 3320 (2016) | 22900 | 3350 | 3650 | 3720 | 24300 | 39200 | 40100 | 43100 | ||
| 2026-04-29 09:00 | 12.48 | 25300 | 43400 (2017) | 3320 (2016) | 22900 | 3350 | 3650 | 3720 | 24300 | 39200 | 40100 | 43100 | ||
| 2026-04-29 08:00 | 12.46 | 25300 | 43400 (2017) | 3320 (2016) | 22900 | 3350 | 3650 | 3720 | 24300 | 39200 | 40100 | 43100 | ||
| 2026-04-29 07:00 | 12.32 | 24900 | 43400 (2017) | 3320 (2016) | 22900 | 3350 | 3650 | 3720 | 24300 | 39200 | 40100 | 43100 | ||
| 2026-04-29 06:00 | 12.33 | 24900 | 43400 (2017) | 3320 (2016) | 22900 | 3350 | 3650 | 3720 | 24300 | 39200 | 40100 | 43100 | ||
| 2026-04-29 05:00 | 12.36 | 25000 | 43400 (2017) | 3320 (2016) | 22900 | 3350 | 3650 | 3720 | 24300 | 39200 | 40100 | 43100 | ||
| 2026-04-29 04:00 | 13.01 | 26900 | 43400 (2017) | 3320 (2016) | 22900 | 3350 | 3650 | 3720 | 24300 | 39200 | 40100 | 43100 | ||
| 2026-04-29 03:00 | 13.66 | 28800 | 43400 (2017) | 3320 (2016) | 22900 | 3350 | 3650 | 3720 | 24300 | 39200 | 40100 | 43100 | ||
| 2026-04-29 02:00 | 14.52 | 31400 | 43400 (2017) | 3320 (2016) | 22900 | 3350 | 3650 | 3720 | 24300 | 39200 | 40100 | 43100 | ||
| 2026-04-29 01:00 | 15.30 | 33800 | 43400 (2017) | 3320 (2016) | 22900 | 3350 | 3650 | 3720 | 24300 | 39200 | 40100 | 43100 | ||
| 2026-04-29 00:00 | 16.11 | 36300 | 43400 (2017) | 3320 (2016) | 22900 | 3350 | 3650 | 3720 | 24300 | 39200 | 40100 | 43100 | ||
| 2026-04-28 23:00 | 16.40 | 37200 | 43400 (2017) | 3320 (2016) | 22900 | 3350 | 3650 | 3720 | 24300 | 39200 | 40100 | 43100 | ||
| 2026-04-28 22:00 | 16.53 | 37600 | 37600 (2020) | 3520 (2023) | 19900 | 3540 | 4060 | 4900 | 22700 | 31200 | 32400 | 37100 | ||
| 2026-04-28 21:00 | 16.55 | 37700 | 37600 (2020) | 3520 (2023) | 19900 | 3540 | 4060 | 4900 | 22700 | 31200 | 32400 | 37100 | ||
| 2026-04-28 20:00 | 16.54 | 37700 | 37600 (2020) | 3520 (2023) | 19900 | 3540 | 4060 | 4900 | 22700 | 31200 | 32400 | 37100 | ||
| 2026-04-28 19:00 | 16.52 | 37600 | 37600 (2020) | 3520 (2023) | 19900 | 3540 | 4060 | 4900 | 22700 | 31200 | 32400 | 37100 | ||
| 2026-04-28 18:00 | 16.53 | 37600 | 37600 (2020) | 3520 (2023) | 19900 | 3540 | 4060 | 4900 | 22700 | 31200 | 32400 | 37100 | ||
| 2026-04-28 17:00 | 16.53 | 37600 | 37600 (2020) | 3520 (2023) | 19900 | 3540 | 4060 | 4900 | 22700 | 31200 | 32400 | 37100 | ||
| 2026-04-28 16:00 | 16.53 | 37600 | 37600 (2020) | 3520 (2023) | 19900 | 3540 | 4060 | 4900 | 22700 | 31200 | 32400 | 37100 | ||
| 2026-04-28 15:00 | 16.50 | 37600 | 37600 (2020) | 3520 (2023) | 19900 | 3540 | 4060 | 4900 | 22700 | 31200 | 32400 | 37100 | ||
| 2026-04-28 14:00 | 16.50 | 37600 | 37600 (2020) | 3520 (2023) | 19900 | 3540 | 4060 | 4900 | 22700 | 31200 | 32400 | 37100 | ||
| 2026-04-28 13:00 | 16.50 | 37600 | 37600 (2020) | 3520 (2023) | 19900 | 3540 | 4060 | 4900 | 22700 | 31200 | 32400 | 37100 | ||
| 2026-04-28 12:00 | 16.51 | 37600 | 37600 (2020) | 3520 (2023) | 19900 | 3540 | 4060 | 4900 | 22700 | 31200 | 32400 | 37100 | ||
| 2026-04-28 11:00 | 16.49 | 37500 | 37600 (2020) | 3520 (2023) | 19900 | 3540 | 4060 | 4900 | 22700 | 31200 | 32400 | 37100 | ||
| 2026-04-28 10:00 | 16.48 | 37500 | 37600 (2020) | 3520 (2023) | 19900 | 3540 | 4060 | 4900 | 22700 | 31200 | 32400 | 37100 | ||
| 2026-04-28 09:00 | 16.48 | 37500 | 37600 (2020) | 3520 (2023) | 19900 | 3540 | 4060 | 4900 | 22700 | 31200 | 32400 | 37100 | ||
| 2026-04-28 08:00 | 16.47 | 37500 | 37600 (2020) | 3520 (2023) | 19900 | 3540 | 4060 | 4900 | 22700 | 31200 | 32400 | 37100 | ||
| 2026-04-28 07:00 | 16.46 | 37400 | 37600 (2020) | 3520 (2023) | 19900 | 3540 | 4060 | 4900 | 22700 | 31200 | 32400 | 37100 | ||
| 2026-04-28 06:00 | 16.45 | 37400 | 37600 (2020) | 3520 (2023) | 19900 | 3540 | 4060 | 4900 | 22700 | 31200 | 32400 | 37100 | ||
| 2026-04-28 05:00 | 16.48 | 37500 | 37600 (2020) | 3520 (2023) | 19900 | 3540 | 4060 | 4900 | 22700 | 31200 | 32400 | 37100 | ||
| 2026-04-28 04:00 | 16.46 | 37400 | 37600 (2020) | 3520 (2023) | 19900 | 3540 | 4060 | 4900 | 22700 | 31200 | 32400 | 37100 | ||
| 2026-04-28 03:00 | 16.61 | 37900 | 37600 (2020) | 3520 (2023) | 19900 | 3540 | 4060 | 4900 | 22700 | 31200 | 32400 | 37100 | ||
| 2026-04-28 02:00 | 16.59 | 37800 | 37600 (2020) | 3520 (2023) | 19900 | 3540 | 4060 | 4900 | 22700 | 31200 | 32400 | 37100 | ||
| 2026-04-28 01:00 | 16.58 | 37800 | 37600 (2020) | 3520 (2023) | 19900 | 3540 | 4060 | 4900 | 22700 | 31200 | 32400 | 37100 | ||
| 2026-04-28 00:00 | 16.57 | 37800 | 37600 (2020) | 3520 (2023) | 19900 | 3540 | 4060 | 4900 | 22700 | 31200 | 32400 | 37100 | ||
| 2026-04-27 23:00 | 16.57 | 37800 | 37600 (2020) | 3520 (2023) | 19900 | 3540 | 4060 | 4900 | 22700 | 31200 | 32400 | 37100 |
A total of 179 rows are displayed for years 2016 through 2025.